Weather reports worldwide

Advertisment
A12-CPP, Netherlands (6205): temperature & dewpoint: 14.10.2019 23:00:00 - 20.10.2019 23:00:00 (CEST)A12-CPP, Netherlands (6205): wind speed & gusts: 14.10.2019 23:00:00 - 20.10.2019 23:00:00 (CEST)A12-CPP, Netherlands (6205): wind direction: 14.10.2019 23:00:00 - 20.10.2019 23:00:00 (CEST)A12-CPP, Netherlands (6205): reduced air pressure: 14.10.2019 23:00:00 - 20.10.2019 23:00:00 (CEST)A12-CPP, Netherlands (6205): visibility: 14.10.2019 23:00:00 - 20.10.2019 23:00:00 (CEST)
Date & Time tt [°C] td [°C] ff [km/h] ff [kn] fx [km/h] fx [kn] dd ppp [hPa] vv [km]
20.10.2019 23:00:00 - - - - - - - - -
20.10.2019 22:00:00 12,3 9,5 35 19 36 19 NNE 1014,7 10
20.10.2019 21:00:00 12,0 9,2 29 16 32 18 NNE 1013,7 10
20.10.2019 20:00:00 12,2 9,0 18 10 25 14 NE 1013,7 10
20.10.2019 19:00:00 12,0 8,8 21 11 25 14 N 1012,3 10
20.10.2019 18:00:00 12,0 8,9 21 11 22 12 N 1011,7 10
20.10.2019 17:00:00 12,2 9,0 21 11 25 14 N 1010,8 10
20.10.2019 16:00:00 12,2 8,3 16 9 18 10 N 1010,1 10
20.10.2019 15:00:00 12,3 8,5 16 9 18 10 N 1009,5 10
20.10.2019 14:00:00 12,4 8,6 15 8 18 10 N 1008,9 10
20.10.2019 13:00:00 12,4 8,2 16 9 18 10 N 1008,3 10
20.10.2019 12:00:00 12,2 9,0 13 7 14 8 N 1007,6 10
20.10.2019 11:00:00 11,9 8,4 9 5 14 8 NNW 1006,7 10
20.10.2019 10:00:00 12,0 8,6 9 5 11 6 NNW 1005,8 10
20.10.2019 09:00:00 11,8 8,5 5 3 11 6 NW 1005,0 10
20.10.2019 08:00:00 11,7 8,9 11 6 14 8 W 1004,3 10
20.10.2019 07:00:00 11,6 7,5 18 10 25 14 W 1003,5 10
20.10.2019 06:00:00 11,7 7,7 28 15 25 14 WSW 1002,6 10
20.10.2019 05:00:00 11,6 8,6 29 16 29 16 SW 1002,0 10
20.10.2019 04:00:00 11,6 8,5 31 17 32 18 SW 1001,7 10
20.10.2019 03:00:00 12,0 8,6 31 17 36 19 SW 1001,3 10
20.10.2019 02:00:00 12,0 8,3 24 13 29 16 SW 1000,9 10
20.10.2019 01:00:00 11,7 8,1 26 14 29 16 SW 1000,5 10
20.10.2019 00:00:00 10,8 7,3 21 11 29 16 WSW 1000,1 10
19.10.2019 23:00:00 11,6 7,5 28 15 29 16 WSW 999,6 10
19.10.2019 22:00:00 11,9 8,3 22 12 25 14 SSW 999,1 10
19.10.2019 21:00:00 12,1 8,1 18 10 29 16 S 998,8 10
19.10.2019 20:00:00 11,9 9,6 21 11 29 16 SW 998,6 10
19.10.2019 19:00:00 12,1 9,1 34 18 32 18 SW 998,5 10
19.10.2019 18:00:00 12,5 9,3 26 14 29 16 S 998,2 10
19.10.2019 17:00:00 12,7 9,6 24 13 25 14 S 998,0 10
19.10.2019 16:00:00 13,0 8,7 24 13 25 14 SSW 998,1 10
19.10.2019 15:00:00 13,1 8,9 22 12 29 16 SSW 997,8 10
19.10.2019 14:00:00 13,0 9,2 26 14 29 16 SSW 997,9 10
19.10.2019 13:00:00 13,0 9,2 24 13 29 16 S 997,8 10
19.10.2019 12:00:00 12,9 8,9 26 14 32 18 SSW 997,8 10
19.10.2019 11:00:00 13,0 9,2 29 16 32 18 S 997,5 10
19.10.2019 10:00:00 12,9 9,1 29 16 29 16 S 997,4 10
19.10.2019 09:00:00 12,9 9,2 29 16 40 21 S 996,7 10
19.10.2019 08:00:00 12,9 9,4 34 18 40 21 SW 996,6 10
19.10.2019 07:00:00 12,9 9,9 35 19 43 23 SW 996,5 10
19.10.2019 06:00:00 12,9 9,0 39 21 47 25 SW 996,3 10
19.10.2019 05:00:00 12,4 9,5 29 16 32 18 SW 996,5 10
19.10.2019 04:00:00 12,0 8,8 28 15 36 19 SW 996,6 10
19.10.2019 03:00:00 12,6 9,0 42 23 47 25 SW 996,5 10
19.10.2019 02:00:00 12,8 8,4 42 23 47 25 WSW 996,3 10
19.10.2019 01:00:00 12,7 8,5 46 25 50 27 WSW 996,3 10
19.10.2019 00:00:00 12,7 8,2 50 27 50 27 WSW 996,0 10
18.10.2019 23:00:00 12,7 8,1 48 26 50 27 WSW 995,6 10
18.10.2019 22:00:00 12,1 8,8 44 24 47 25 WSW 995,5 10
18.10.2019 21:00:00 12,3 8,0 50 27 54 29 WSW 995,5 10
18.10.2019 20:00:00 12,3 8,5 55 30 58 31 WSW 995,0 10
18.10.2019 19:00:00 12,1 8,8 48 26 50 27 WSW 994,6 10
18.10.2019 18:00:00 11,6 9,3 34 18 32 18 SW 994,1 10
18.10.2019 17:00:00 11,3 9,0 31 17 32 18 W 993,9 10
18.10.2019 16:00:00 11,5 7,8 16 9 29 16 WSW 993,7 10
18.10.2019 15:00:00 11,0 9,5 31 17 40 21 SSE 994,3 2,6
18.10.2019 14:00:00 12,0 10,0 37 20 36 19 SSE 994,9 10
18.10.2019 13:00:00 12,7 10,2 37 20 36 19 SSE 995,9 10
18.10.2019 12:00:00 13,1 10,8 35 19 36 19 SSE 996,9 10
18.10.2019 11:00:00 13,5 11,2 29 16 29 16 SSE 997,5 10
18.10.2019 10:00:00 13,3 11,9 29 16 29 16 SSE 998,2 10
18.10.2019 09:00:00 13,4 11,7 31 17 36 19 SSE 998,9 10
18.10.2019 08:00:00 13,6 11,6 31 17 32 18 SSE 999,2 10
18.10.2019 07:00:00 13,5 10,8 37 20 36 19 SSE 999,9 10
18.10.2019 06:00:00 13,6 11,4 21 11 22 12 SSE 1000,8 10
18.10.2019 05:00:00 13,6 10,8 24 13 25 14 S 1001,3 10
18.10.2019 04:00:00 13,4 11,0 24 13 29 16 SSW 1001,9 10
18.10.2019 03:00:00 13,6 10,3 29 16 36 19 S 1002,4 10
18.10.2019 02:00:00 13,1 11,4 34 18 32 18 S 1002,8 10
18.10.2019 01:00:00 12,5 11,0 29 16 40 21 S 1003,2 10
18.10.2019 00:00:00 13,4 11,2 26 14 29 16 SSE 1003,5 10
17.10.2019 23:00:00 13,2 9,8 28 15 32 18 SSE 1004,4 10
17.10.2019 22:00:00 13,1 8,2 26 14 29 16 SE 1004,7 10
17.10.2019 21:00:00 13,2 7,5 24 13 25 14 SSE 1005,4 10
17.10.2019 20:00:00 13,1 5,8 22 12 22 12 S 1005,9 10
17.10.2019 19:00:00 12,9 7,1 21 11 29 16 S 1006,1 10
17.10.2019 18:00:00 13,0 6,2 24 13 29 16 SSW 1006,1 10
17.10.2019 17:00:00 13,3 7,5 28 15 32 18 SW 1006,1 10
17.10.2019 16:00:00 13,2 7,4 31 17 32 18 SW 1006,3 10
17.10.2019 15:00:00 12,8 7,4 29 16 32 18 SW 1006,2 10
17.10.2019 14:00:00 12,7 6,0 31 17 32 18 SW 1006,1 10
17.10.2019 13:00:00 12,4 6,5 31 17 36 19 SW 1006,0 10
17.10.2019 12:00:00 12,2 6,6 34 18 32 18 WSW 1006,0 10
17.10.2019 11:00:00 12,1 7,4 31 17 36 19 WSW 1005,6 10
17.10.2019 10:00:00 12,2 7,4 34 18 36 19 W 1004,9 10
17.10.2019 09:00:00 12,3 8,3 35 19 36 19 WSW 1004,3 10
17.10.2019 08:00:00 12,3 8,8 35 19 36 19 WSW 1003,4 10
17.10.2019 07:00:00 12,2 8,8 31 17 29 16 WSW 1002,8 10
17.10.2019 06:00:00 12,3 8,4 29 16 36 19 W 1002,8 10
17.10.2019 05:00:00 12,5 8,7 35 19 36 19 W 1002,6 10
17.10.2019 04:00:00 12,7 9,5 37 20 40 21 W 1002,4 10
17.10.2019 03:00:00 12,7 9,8 35 19 36 19 W 1001,9 10
17.10.2019 02:00:00 12,6 10,6 35 19 36 19 W 1001,4 10
17.10.2019 01:00:00 13,1 11,2 34 18 32 18 WSW 1001,0 10
17.10.2019 00:00:00 13,0 12,5 29 16 29 16 WSW 1000,6 10
16.10.2019 23:00:00 13,3 13,1 31 17 36 19 WSW 1000,2 10
16.10.2019 22:00:00 14,1 14,1 35 19 54 29 S 999,4 9
16.10.2019 21:00:00 13,7 13,7 52 28 50 27 SSE 999,5 5
16.10.2019 20:00:00 13,7 13,3 46 25 47 25 SSE 1000,4 6
16.10.2019 19:00:00 13,8 13,0 46 25 47 25 SSE 1000,9 10
16.10.2019 18:00:00 13,9 12,4 46 25 47 25 SSE 1001,3 10
16.10.2019 17:00:00 14,2 12,0 42 23 43 23 SSE 1001,9 10
16.10.2019 16:00:00 14,4 11,8 37 20 36 19 SSE 1002,5 10
16.10.2019 15:00:00 14,4 11,9 31 17 32 18 SSE 1002,6 10
16.10.2019 14:00:00 14,1 11,5 29 16 29 16 S 1003,1 10
16.10.2019 13:00:00 14,0 11,8 26 14 40 21 S 1003,6 10
16.10.2019 12:00:00 14,1 12,3 34 18 36 19 SSE 1003,7 10
16.10.2019 11:00:00 14,0 12,1 29 16 29 16 SSE 1003,6 10
16.10.2019 10:00:00 13,7 11,7 31 17 29 16 S 1003,9 10
16.10.2019 09:00:00 13,6 11,2 28 15 29 16 S 1003,8 10
16.10.2019 08:00:00 13,6 11,1 26 14 32 18 S 1003,5 10
16.10.2019 07:00:00 13,5 10,9 22 12 29 16 - 1003,8 10
16.10.2019 06:00:00 13,5 10,0 28 15 32 18 SSW 1003,9 10
16.10.2019 05:00:00 13,4 9,4 18 10 25 14 SSW 1003,9 10
16.10.2019 04:00:00 13,0 9,9 21 11 25 14 SSW 1003,9 10
16.10.2019 03:00:00 13,0 9,2 26 14 29 16 SW 1004,0 10
16.10.2019 02:00:00 12,9 9,0 34 18 36 19 SW 1004,0 10
16.10.2019 01:00:00 12,9 9,0 29 16 36 19 WSW 1004,1 10
16.10.2019 00:00:00 12,8 9,4 34 18 36 19 SW 1004,2 10
15.10.2019 23:00:00 12,4 9,8 41 22 40 21 SW 1003,8 10
15.10.2019 22:00:00 12,2 10,5 35 19 43 23 WSW 1003,5 10
15.10.2019 21:00:00 12,9 9,9 39 21 43 23 SW 1003,1 10
15.10.2019 20:00:00 12,8 10,5 42 23 50 27 WSW 1002,5 10
15.10.2019 19:00:00 12,7 11,0 48 26 50 27 WSW 1001,5 10
15.10.2019 18:00:00 12,6 10,9 50 27 50 27 SW 1000,9 10
15.10.2019 17:00:00 12,9 11,8 50 27 50 27 SW 1000,2 10
15.10.2019 16:00:00 13,2 11,9 48 26 54 29 SW 1000,0 10
15.10.2019 15:00:00 13,6 12,9 37 20 40 21 S 999,9 10
15.10.2019 14:00:00 13,6 12,5 39 21 43 23 S 999,7 10
15.10.2019 13:00:00 13,9 12,9 41 22 43 23 S 999,9 10
15.10.2019 12:00:00 14,5 13,8 37 20 36 19 S 999,7 10
15.10.2019 11:00:00 14,7 13,6 37 20 36 19 S 999,7 10
15.10.2019 10:00:00 14,9 14,2 37 20 36 19 S 999,5 10
15.10.2019 09:00:00 14,9 14,3 37 20 40 21 SSE 999,4 10
15.10.2019 08:00:00 15,0 14,4 39 21 40 21 SSE 999,5 10
15.10.2019 07:00:00 15,1 14,7 42 23 43 23 SSE 999,3 9
15.10.2019 06:00:00 14,9 14,4 42 23 43 23 SE 999,3 10
15.10.2019 05:00:00 14,7 14,2 39 21 43 23 SE 1000,5 10
15.10.2019 04:00:00 14,5 14,0 34 18 50 27 ESE 1001,2 10
15.10.2019 03:00:00 13,8 13,3 54 29 65 35 E 1001,9 10
15.10.2019 02:00:00 13,5 12,9 54 29 61 33 - 1002,9 3,1
15.10.2019 01:00:00 13,0 10,8 52 28 54 29 E 1004,8 10
15.10.2019 00:00:00 12,6 11,7 50 27 54 29 E 1006,8 10
14.10.2019 23:00:00 12,0 10,8 34 18 32 18 E 1007,7 4,1

tt = temperature
td = dewpoint
ff = wind speed
fx = gusts
dd = wind direction
ppp = reduced air pressure
vv = visibility

Next stations